View from above orbital plane
|
View from above satellite
|
Ground track
|
The orbit data is extracted from the following two-line orbital elements,
1 22220U 92076B 21055.39115472 -.00000016 00000-0 15779-4 0 9998
2 22220 70.9990 101.2391 0012276 8.1619 3.0602 14.16464882461358
Epoch (UTC): | 24 February 2021 09:23:15 |
Eccentricity: | 0.0012276 |
inclination: | 70.9990° |
perigee height: | 828 km |
apogee height: | 846 km |
right ascension of ascending node: | 101.2391° |
argument of perigee: | 8.1619° |
revolutions per day: | 14.16464882 |
mean anomaly at epoch: | 3.0602° |
orbit number at epoch: | 46135 |
The dashed part of the orbit path shows where the satellite is in the earth's shadow,
|
|